User: anonymous   Login
Location: Unspecified
(0.0000°N, 0.0000°E)
Time: 16:13:58
(UTC+00:00)
Language:

GONETS M 05 - Orbit

View from above orbital plane
View from above orbital plane
View from above satellite
View from above satellite

Ground track
Ground track

The orbit data is extracted from the following two-line orbital elements,

1 39249U 13048A   18261.45022810  .00000030  00000-0  14412-3 0  9991
2 39249  82.4814 306.8052 0014409 261.9043  98.0399 12.42880868227638
Epoch (UTC): 18 September 2018 10:48:19
Eccentricity: 0.0014409
inclination: 82.4814°
perigee height: 1483 km
apogee height: 1506 km
right ascension of ascending node: 306.8052°
argument of perigee: 261.9043°
revolutions per day: 12.42880868
mean anomaly at epoch: 98.0399°
orbit number at epoch: 22763

The dashed part of the orbit path shows where the satellite is in the earth's shadow,  

DLR